Time,TemperatureF,DewpointF,PressureIn,WindDirection,WindDirectionDegrees,WindSpeedMPH,WindSpeedGustMPH,Humidity,HourlyPrecipIn,Conditions,Clouds,dailyrainin,SoftwareType,DateUTC
2013-03-01 00:01:00,22.5,-8.0,26.07,ENE,58,0.0,0.0,25,0.00,,---,0.00,VWS V13.01,2013-03-01 06:01:00,
2013-03-01 00:06:00,22.5,-8.0,26.07,NW,319,2.7,2.7,25,0.00,,---,0.00,VWS V13.01,2013-03-01 06:06:00,
2013-03-01 00:11:00,22.5,-8.0,26.07,NW,319,2.7,2.7,25,0.00,,---,0.00,VWS V13.01,2013-03-01 06:11:00,
2013-03-01 00:16:00,22.5,-8.0,26.07,NW,319,2.7,2.7,25,0.00,,---,0.00,VWS V13.01,2013-03-01 06:16:00,
2013-03-01 00:21:00,22.5,-8.0,26.07,NW,319,2.7,2.7,25,0.00,,---,0.00,VWS V13.01,2013-03-01 06:21:00,
2013-03-01 00:26:00,22.8,-7.7,26.07,NW,319,2.7,2.7,25,0.00,,---,0.00,VWS V13.01,2013-03-01 06:26:00,
2013-03-01 00:31:00,22.8,-7.7,26.07,NW,319,2.7,2.7,25,0.00,,---,0.00,VWS V13.01,2013-03-01 06:31:00,
2013-03-01 00:36:00,21.9,-8.5,26.07,NW,319,2.7,2.7,25,0.00,,---,0.00,VWS V13.01,2013-03-01 06:36:00,
2013-03-01 00:41:00,21.9,-8.5,26.07,NW,319,2.7,2.7,25,0.00,,---,0.00,VWS V13.01,2013-03-01 06:41:00,
2013-03-01 00:46:00,21.7,-8.6,26.07,NW,319,2.7,2.7,25,0.00,,---,0.00,VWS V13.01,2013-03-01 06:46:00,
2013-03-01 00:51:00,21.9,-8.5,26.07,NW,319,2.7,2.7,25,0.00,,---,0.00,VWS V13.01,2013-03-01 06:51:00,
2013-03-01 00:56:00,21.9,-8.5,26.07,NW,319,2.7,2.7,25,0.00,,---,0.00,VWS V13.01,2013-03-01 06:56:00,
2013-03-01 01:01:00,21.9,-8.5,26.07,NW,319,2.7,2.7,25,0.00,,---,0.00,VWS V13.01,2013-03-01 07:01:00,
2013-03-01 01:06:00,21.9,-8.5,26.07,NW,319,2.7,2.7,25,0.00,,---,0.00,VWS V13.01,2013-03-01 07:06:00,
2013-03-01 01:11:00,22.6,-7.9,26.07,NW,319,2.7,2.7,25,0.00,,---,0.00,VWS V13.01,2013-03-01 07:11:00,
2013-03-01 01:16:00,22.3,-8.2,26.07,NW,319,2.7,2.7,25,0.00,,---,0.00,VWS V13.01,2013-03-01 07:16:00,
2013-03-01 01:21:00,22.3,-8.2,26.07,NW,319,2.7,2.7,25,0.00,,---,0.00,VWS V13.01,2013-03-01 07:21:00,
2013-03-01 01:26:00,22.5,-8.0,26.07,NW,319,2.7,2.7,25,0.00,,---,0.00,VWS V13.01,2013-03-01 07:26:00,
2013-03-01 01:31:00,22.5,-8.0,26.07,NW,319,2.7,2.7,25,0.00,,---,0.00,VWS V13.01,2013-03-01 07:31:00,
2013-03-01 01:36:00,21.6,-8.8,26.07,NW,319,2.7,2.7,25,0.00,,---,0.00,VWS V13.01,2013-03-01 07:36:00,
2013-03-01 01:41:00,21.6,-8.8,26.05,NNW,327,2.7,2.7,25,0.00,,---,0.00,VWS V13.01,2013-03-01 07:41:00,
2013-03-01 01:46:00,21.6,-8.8,26.05,NNW,327,2.7,2.7,25,0.00,,---,0.00,VWS V13.01,2013-03-01 07:46:00,
2013-03-01 01:51:00,20.3,-9.9,26.05,NNW,327,2.7,2.7,25,0.00,,---,0.00,VWS V13.01,2013-03-01 07:51:00,
2013-03-01 01:56:00,20.3,-9.9,26.05,NNW,327,2.7,2.7,25,0.00,,---,0.00,VWS V13.01,2013-03-01 07:56:00,
2013-03-01 02:01:00,20.1,-10.1,26.05,NNW,327,2.7,2.7,25,0.00,,---,0.00,VWS V13.01,2013-03-01 08:01:00,
2013-03-01 02:06:00,20.3,-9.9,26.05,NW,319,4.0,4.0,25,0.00,,---,0.00,VWS V13.01,2013-03-01 08:06:00,
2013-03-01 02:11:00,21.0,-9.3,26.05,NW,319,4.0,4.0,25,0.00,,---,0.00,VWS V13.01,2013-03-01 08:11:00,
2013-03-01 02:16:00,21.6,-8.8,26.05,NW,319,4.0,4.0,25,0.00,,---,0.00,VWS V13.01,2013-03-01 08:16:00,
2013-03-01 02:21:00,21.6,-8.8,26.05,NW,322,5.4,5.4,25,0.00,,---,0.00,VWS V13.01,2013-03-01 08:21:00,
2013-03-01 02:26:00,21.7,-8.6,26.05,NNW,329,4.9,4.9,25,0.00,,---,0.00,VWS V13.01,2013-03-01 08:26:00,
2013-03-01 02:31:00,21.7,-8.6,26.05,NNW,330,4.0,4.0,25,0.00,,---,0.00,VWS V13.01,2013-03-01 08:31:00,
2013-03-01 02:36:00,21.0,-9.3,26.05,NNW,330,4.0,4.0,25,0.00,,---,0.00,VWS V13.01,2013-03-01 08:36:00,
2013-03-01 02:41:00,21.0,-9.3,26.05,NNW,334,3.1,3.1,25,0.00,,---,0.00,VWS V13.01,2013-03-01 08:41:00,
2013-03-01 02:46:00,21.7,-8.6,26.05,NW,326,4.9,4.9,25,0.00,,---,0.00,VWS V13.01,2013-03-01 08:46:00,
2013-03-01 02:51:00,21.6,-8.8,26.05,NW,326,4.9,4.9,25,0.00,,---,0.00,VWS V13.01,2013-03-01 08:51:00,
2013-03-01 02:56:00,21.6,-8.8,26.05,NW,323,5.4,5.4,25,0.00,,---,0.00,VWS V13.01,2013-03-01 08:56:00,
2013-03-01 03:01:00,21.2,-9.1,26.05,NW,321,2.2,2.2,25,0.00,,---,0.00,VWS V13.01,2013-03-01 09:01:00,
2013-03-01 03:06:00,21.2,-9.1,26.05,NW,321,2.2,2.2,25,0.00,,---,0.00,VWS V13.01,2013-03-01 09:06:00,
2013-03-01 03:11:00,21.2,-9.1,26.05,NW,321,2.2,2.2,25,0.00,,---,0.00,VWS V13.01,2013-03-01 09:11:00,
2013-03-01 03:16:00,21.2,-9.1,26.05,NW,326,3.6,3.6,25,0.00,,---,0.00,VWS V13.01,2013-03-01 09:16:00,
2013-03-01 03:21:00,21.6,-8.8,26.05,NW,324,2.2,2.2,25,0.00,,---,0.00,VWS V13.01,2013-03-01 09:21:00,
2013-03-01 03:26:00,22.8,-7.7,26.05,NW,318,0.0,2.2,25,0.00,,---,0.00,VWS V13.01,2013-03-01 09:26:00,
2013-03-01 03:31:00,23.4,-8.1,26.05,NW,318,0.0,0.0,24,0.00,,---,0.00,VWS V13.01,2013-03-01 09:31:00,
2013-03-01 03:36:00,23.4,-8.1,26.02,NW,320,4.0,4.0,24,0.00,,---,0.00,VWS V13.01,2013-03-01 09:36:00,
2013-03-01 03:41:00,23.4,-8.1,26.02,NNW,332,0.0,0.0,24,0.00,,---,0.00,VWS V13.01,2013-03-01 09:41:00,
2013-03-01 03:46:00,23.0,-7.6,26.02,NW,321,3.1,3.1,25,0.00,,---,0.00,VWS V13.01,2013-03-01 09:46:00,
2013-03-01 03:51:00,21.9,-8.5,26.02,NW,310,2.7,2.7,25,0.00,,---,0.00,VWS V13.01,2013-03-01 09:51:00,
2013-03-01 03:56:00,20.8,-9.4,26.02,NW,310,2.7,2.7,25,0.00,,---,0.00,VWS V13.01,2013-03-01 09:56:00,
2013-03-01 04:01:00,20.7,-9.6,26.02,SSW,195,0.0,2.7,25,0.00,,---,0.00,VWS V13.01,2013-03-01 10:01:00,
2013-03-01 04:06:00,20.7,-9.6,26.02,SSW,195,0.0,0.0,25,0.00,,---,0.00,VWS V13.01,2013-03-01 10:06:00,
2013-03-01 04:11:00,21.2,-9.1,26.02,SSW,194,0.0,0.0,25,0.00,,---,0.00,VWS V13.01,2013-03-01 10:11:00,
2013-03-01 04:16:00,21.2,-9.1,26.05,West,279,0.0,0.0,25,0.00,,---,0.00,VWS V13.01,2013-03-01 10:16:00,
2013-03-01 04:21:00,22.8,-7.7,26.05,West,279,0.0,0.0,25,0.00,,---,0.00,VWS V13.01,2013-03-01 10:21:00,
2013-03-01 04:26:00,23.2,-8.2,26.05,North,353,0.0,0.0,24,0.00,,---,0.00,VWS V13.01,2013-03-01 10:26:00,
2013-03-01 04:31:00,23.2,-8.2,26.05,North,353,0.0,0.0,24,0.00,,---,0.00,VWS V13.01,2013-03-01 10:31:00,
2013-03-01 04:36:00,23.0,-7.6,26.05,North,353,0.0,0.0,25,0.00,,---,0.00,VWS V13.01,2013-03-01 10:36:00,
2013-03-01 04:41:00,23.0,-7.6,26.05,North,353,0.0,0.0,25,0.00,,---,0.00,VWS V13.01,2013-03-01 10:41:00,
2013-03-01 04:46:00,23.0,-7.6,26.05,North,353,0.0,0.0,25,0.00,,---,0.00,VWS V13.01,2013-03-01 10:46:00,
2013-03-01 04:51:00,23.0,-7.6,26.05,North,353,0.0,0.0,25,0.00,,---,0.00,VWS V13.01,2013-03-01 10:51:00,
2013-03-01 04:56:00,23.9,-7.6,26.05,North,353,0.0,0.0,24,0.00,,---,0.00,VWS V13.01,2013-03-01 10:56:00,
2013-03-01 05:01:00,24.3,-7.3,26.05,North,350,0.0,0.0,24,0.00,,---,0.00,VWS V13.01,2013-03-01 11:01:00,
2013-03-01 05:06:00,24.4,-7.2,26.05,North,353,0.0,0.0,24,0.00,,---,0.00,VWS V13.01,2013-03-01 11:06:00,
2013-03-01 05:11:00,24.6,-7.0,26.05,North,353,0.0,0.0,24,0.00,,---,0.00,VWS V13.01,2013-03-01 11:11:00,
2013-03-01 05:16:00,24.6,-7.0,26.05,North,353,0.0,0.0,24,0.00,,---,0.00,VWS V13.01,2013-03-01 11:16:00,
2013-03-01 05:21:00,26.2,-5.6,26.05,North,357,0.0,0.0,24,0.00,,---,0.00,VWS V13.01,2013-03-01 11:21:00,
2013-03-01 05:26:00,26.2,-5.6,26.05,North,357,0.0,0.0,24,0.00,,---,0.00,VWS V13.01,2013-03-01 11:26:00,
2013-03-01 05:31:00,26.2,-5.6,26.05,North,357,0.0,0.0,24,0.00,,---,0.00,VWS V13.01,2013-03-01 11:31:00,
2013-03-01 05:36:00,26.2,-5.6,26.05,NNW,345,0.0,0.0,24,0.00,,---,0.00,VWS V13.01,2013-03-01 11:36:00,
2013-03-01 05:41:00,26.2,-5.6,26.05,NNW,345,0.0,0.0,24,0.00,,---,0.00,VWS V13.01,2013-03-01 11:41:00,
2013-03-01 05:46:00,26.2,-5.6,26.05,North,353,0.0,0.0,24,0.00,,---,0.00,VWS V13.01,2013-03-01 11:46:00,
2013-03-01 05:51:00,26.2,-5.6,26.05,North,353,0.0,0.0,24,0.00,,---,0.00,VWS V13.01,2013-03-01 11:51:00,
2013-03-01 05:56:00,27.0,-5.9,26.05,NW,308,3.6,3.6,23,0.00,,---,0.00,VWS V13.01,2013-03-01 11:56:00,
2013-03-01 06:01:00,28.8,-4.3,26.05,NNW,327,2.7,2.7,23,0.00,,---,0.00,VWS V13.01,2013-03-01 12:01:00,
2013-03-01 06:06:00,28.8,-4.3,26.05,NNW,327,2.7,2.7,23,0.00,,---,0.00,VWS V13.01,2013-03-01 12:06:00,
2013-03-01 06:11:00,28.6,-4.5,26.05,NNW,327,2.7,2.7,23,0.00,,---,0.00,VWS V13.01,2013-03-01 12:11:00,
2013-03-01 06:16:00,28.2,-4.8,26.05,NNW,327,0.0,0.0,23,0.00,,---,0.00,VWS V13.01,2013-03-01 12:16:00,
2013-03-01 06:21:00,28.4,-4.7,26.05,NW,312,5.4,5.4,23,0.00,,---,0.00,VWS V13.01,2013-03-01 12:21:00,
2013-03-01 06:26:00,28.8,-4.3,26.05,NW,312,5.4,5.4,23,0.00,,---,0.00,VWS V13.01,2013-03-01 12:26:00,
2013-03-01 06:31:00,28.8,-4.3,26.05,NW,309,4.9,4.9,23,0.00,,---,0.00,VWS V13.01,2013-03-01 12:31:00,
2013-03-01 06:36:00,29.3,-3.9,26.05,WNW,289,5.8,5.8,23,0.00,,---,0.00,VWS V13.01,2013-03-01 12:36:00,
2013-03-01 06:41:00,30.6,-2.8,26.05,WNW,289,5.8,5.8,23,0.00,,---,0.00,VWS V13.01,2013-03-01 12:41:00,
2013-03-01 06:46:00,30.9,-2.5,26.05,WNW,303,2.7,2.7,23,0.00,,---,0.00,VWS V13.01,2013-03-01 12:46:00,
2013-03-01 06:51:00,30.9,-2.5,26.05,NW,322,0.0,0.0,23,0.00,,---,0.00,VWS V13.01,2013-03-01 12:51:00,
2013-03-01 06:56:00,30.9,-2.5,26.05,NNW,334,0.0,0.0,23,0.00,,---,0.00,VWS V13.01,2013-03-01 12:56:00,
2013-03-01 07:01:00,30.9,-2.5,26.05,NNW,334,0.0,0.0,23,0.00,,---,0.00,VWS V13.01,2013-03-01 13:01:00,
2013-03-01 07:06:00,30.7,-2.7,26.05,WNW,285,0.0,0.0,23,0.00,,---,0.00,VWS V13.01,2013-03-01 13:06:00,
2013-03-01 07:11:00,30.7,-2.7,26.05,WNW,285,0.0,0.0,23,0.00,,---,0.00,VWS V13.01,2013-03-01 13:11:00,
2013-03-01 07:16:00,30.9,-2.5,26.05,WNW,285,0.0,0.0,23,0.00,,---,0.00,VWS V13.01,2013-03-01 13:16:00,
2013-03-01 07:21:00,32.2,-1.4,26.05,SW,225,0.0,0.0,23,0.00,,---,0.00,VWS V13.01,2013-03-01 13:21:00,
2013-03-01 07:26:00,33.3,-0.5,26.05,NW,308,4.0,4.0,23,0.00,,---,0.00,VWS V13.01,2013-03-01 13:26:00,
2013-03-01 07:31:00,33.3,-0.5,26.05,WNW,294,0.0,4.0,23,0.00,,---,0.00,VWS V13.01,2013-03-01 13:31:00,
2013-03-01 07:36:00,33.6,-0.2,26.05,WNW,294,0.0,0.0,23,0.00,,---,0.00,VWS V13.01,2013-03-01 13:36:00,
2013-03-01 07:41:00,33.6,-0.2,26.05,NW,308,0.0,0.0,23,0.00,,---,0.00,VWS V13.01,2013-03-01 13:41:00,
2013-03-01 07:46:00,37.4,1.0,26.05,SE,139,3.1,3.1,21,0.00,,---,0.00,VWS V13.01,2013-03-01 13:46:00,
2013-03-01 07:51:00,41.7,4.7,26.05,SE,139,3.1,3.1,21,0.00,,---,0.00,VWS V13.01,2013-03-01 13:51:00,
2013-03-01 07:56:00,43.3,5.0,26.05,SE,139,0.0,0.0,20,0.00,,---,0.00,VWS V13.01,2013-03-01 13:56:00,
2013-03-01 08:01:00,47.8,7.6,26.05,SE,139,0.0,0.0,19,0.00,,---,0.00,VWS V13.01,2013-03-01 14:01:00,
2013-03-01 08:06:00,47.8,7.6,26.05,SE,139,0.0,0.0,19,0.00,,---,0.00,VWS V13.01,2013-03-01 14:06:00,
2013-03-01 08:11:00,51.1,10.3,26.05,SE,139,0.0,0.0,19,0.00,,---,0.00,VWS V13.01,2013-03-01 14:11:00,
2013-03-01 08:16:00,52.0,9.8,26.05,NW,313,5.8,5.8,18,0.00,,---,0.00,VWS V13.01,2013-03-01 14:16:00,
2013-03-01 08:21:00,53.1,10.7,26.05,NW,313,5.8,5.8,18,0.00,,---,0.00,VWS V13.01,2013-03-01 14:21:00,
2013-03-01 08:26:00,54.5,11.9,26.05,NW,313,5.8,5.8,18,0.00,,---,0.00,VWS V13.01,2013-03-01 14:26:00,
2013-03-01 08:31:00,54.7,12.0,26.05,North,357,5.8,5.8,18,0.00,,---,0.00,VWS V13.01,2013-03-01 14:31:00,
2013-03-01 08:36:00,56.3,12.1,26.05,North,357,5.8,5.8,17,0.00,,---,0.00,VWS V13.01,2013-03-01 14:36:00,
2013-03-01 08:41:00,56.7,12.4,26.05,North,357,5.8,5.8,17,0.00,,---,0.00,VWS V13.01,2013-03-01 14:41:00,
2013-03-01 08:46:00,58.3,13.7,26.05,North,357,5.8,5.8,17,0.00,,---,0.00,VWS V13.01,2013-03-01 14:46:00,
2013-03-01 08:51:00,58.5,13.8,26.05,ENE,57,3.1,3.1,17,0.00,,---,0.00,VWS V13.01,2013-03-01 14:51:00,
2013-03-01 08:56:00,58.6,14.0,26.05,NE,46,10.5,10.5,17,0.00,,---,0.00,VWS V13.01,2013-03-01 14:56:00,
2013-03-01 09:01:00,57.7,13.2,26.05,NE,46,10.5,10.5,17,0.00,,---,0.00,VWS V13.01,2013-03-01 15:01:00,
2013-03-01 09:06:00,58.1,13.5,26.05,NNE,24,4.0,4.0,17,0.00,,---,0.00,VWS V13.01,2013-03-01 15:06:00,
2013-03-01 09:11:00,58.1,13.5,26.05,NNE,24,4.0,4.0,17,0.00,,---,0.00,VWS V13.01,2013-03-01 15:11:00,
2013-03-01 09:16:00,58.1,13.5,26.05,NNW,334,5.8,5.8,17,0.00,,---,0.00,VWS V13.01,2013-03-01 15:16:00,
2013-03-01 09:21:00,58.1,13.5,26.05,WNW,285,4.0,4.0,17,0.00,,---,0.00,VWS V13.01,2013-03-01 15:21:00,
2013-03-01 09:26:00,59.9,15.0,26.19,North,0,4.9,4.9,17,0.00,,---,0.00,VWS V13.01,2013-03-01 15:26:00,
2013-03-01 09:31:00,59.9,15.0,26.19,ESE,103,6.3,6.3,17,0.00,,---,0.00,VWS V13.01,2013-03-01 15:31:00,
2013-03-01 09:36:00,59.9,15.0,26.19,NE,37,6.3,6.3,17,0.00,,---,0.00,VWS V13.01,2013-03-01 15:36:00,
2013-03-01 09:41:00,59.9,15.0,26.19,North,10,8.1,8.1,17,0.00,,---,0.00,VWS V13.01,2013-03-01 15:41:00,
2013-03-01 09:46:00,59.9,15.0,26.19,North,7,8.3,8.3,17,0.00,,---,0.00,VWS V13.01,2013-03-01 15:46:00,
2013-03-01 09:51:00,61.0,14.5,26.19,North,0,3.1,3.1,16,0.00,,---,0.00,VWS V13.01,2013-03-01 15:51:00,
2013-03-01 09:56:00,61.0,14.5,26.19,ESE,117,4.0,4.0,16,0.00,,---,0.00,VWS V13.01,2013-03-01 15:56:00,
2013-03-01 10:01:00,61.0,14.5,26.19,North,3,3.1,5.8,16,0.00,,---,0.00,VWS V13.01,2013-03-01 16:01:00,
2013-03-01 10:06:00,61.0,14.5,26.19,ENE,78,2.7,4.0,16,0.00,,---,0.00,VWS V13.01,2013-03-01 16:06:00,
2013-03-01 10:11:00,65.8,21.2,26.19,NNE,22,7.6,7.6,18,0.00,,---,0.00,VWS V13.01,2013-03-01 16:11:00,
2013-03-01 10:16:00,66.0,21.3,26.19,North,353,3.1,3.1,18,0.00,,---,0.00,VWS V13.01,2013-03-01 16:16:00,
2013-03-01 10:21:00,66.0,21.3,26.19,NNE,18,4.0,4.0,18,0.00,,---,0.00,VWS V13.01,2013-03-01 16:21:00,
2013-03-01 10:26:00,66.4,20.3,26.19,North,6,3.6,3.6,17,0.00,,---,0.00,VWS V13.01,2013-03-01 16:26:00,
2013-03-01 10:31:00,66.4,20.3,26.19,North,4,5.4,5.4,17,0.00,,---,0.00,VWS V13.01,2013-03-01 16:31:00,
2013-03-01 10:36:00,66.2,20.1,26.19,NE,41,3.1,3.1,17,0.00,,---,0.00,VWS V13.01,2013-03-01 16:36:00,
2013-03-01 10:41:00,66.2,20.1,26.19,ENE,64,3.1,3.1,17,0.00,,---,0.00,VWS V13.01,2013-03-01 16:41:00,
2013-03-01 10:46:00,66.2,20.1,26.19,NNE,19,4.0,6.3,17,0.00,,---,0.00,VWS V13.01,2013-03-01 16:46:00,
2013-03-01 10:51:00,66.2,20.1,26.19,NE,42,9.6,9.6,17,0.00,,---,0.00,VWS V13.01,2013-03-01 16:51:00,
2013-03-01 10:56:00,66.2,20.1,26.22,East,99,7.6,8.1,17,0.00,,---,0.00,VWS V13.01,2013-03-01 16:56:00,
2013-03-01 11:01:00,65.3,20.7,26.22,NNE,18,3.6,3.6,18,0.00,,---,0.00,VWS V13.01,2013-03-01 17:01:00,
2013-03-01 11:06:00,66.9,20.7,26.22,East,92,2.7,2.7,17,0.00,,---,0.00,VWS V13.01,2013-03-01 17:06:00,
2013-03-01 11:11:00,66.9,20.7,26.22,ENE,57,5.4,5.4,17,0.00,,---,0.00,VWS V13.01,2013-03-01 17:11:00,
2013-03-01 11:16:00,66.6,20.4,26.22,NW,326,4.9,4.9,17,0.00,,---,0.00,VWS V13.01,2013-03-01 17:16:00,
2013-03-01 11:21:00,68.0,21.6,26.22,NE,50,2.7,2.7,17,0.00,,---,0.00,VWS V13.01,2013-03-01 17:21:00,
2013-03-01 11:26:00,68.0,21.6,26.22,NNW,335,3.1,4.9,17,0.00,,---,0.00,VWS V13.01,2013-03-01 17:26:00,
2013-03-01 11:31:00,68.0,21.6,26.22,ENE,70,6.3,6.3,17,0.00,,---,0.00,VWS V13.01,2013-03-01 17:31:00,
2013-03-01 11:36:00,68.0,21.6,26.22,NE,44,5.8,6.3,17,0.00,,---,0.00,VWS V13.01,2013-03-01 17:36:00,
2013-03-01 11:41:00,65.7,21.0,26.22,ESE,112,4.5,4.5,18,0.00,,---,0.00,VWS V13.01,2013-03-01 17:41:00,
2013-03-01 11:46:00,65.7,21.0,26.22,NE,36,3.6,3.6,18,0.00,,---,0.00,VWS V13.01,2013-03-01 17:46:00,
2013-03-01 11:51:00,65.7,21.0,26.22,ENE,77,3.6,3.6,18,0.00,,---,0.00,VWS V13.01,2013-03-01 17:51:00,
2013-03-01 11:56:00,65.7,21.0,26.22,WSW,254,9.6,9.6,18,0.00,,---,0.00,VWS V13.01,2013-03-01 17:56:00,
2013-03-01 12:01:00,65.7,21.0,26.22,ENE,67,7.2,7.2,18,0.00,,---,0.00,VWS V13.01,2013-03-01 18:01:00,
2013-03-01 12:06:00,65.7,21.0,26.22,ENE,64,15.4,15.4,18,0.00,,---,0.00,VWS V13.01,2013-03-01 18:06:00,
2013-03-01 12:11:00,63.0,18.8,26.22,East,91,8.7,8.7,18,0.00,,---,0.00,VWS V13.01,2013-03-01 18:11:00,
2013-03-01 12:16:00,64.6,20.1,26.22,NE,52,4.9,4.9,18,0.00,,---,0.00,VWS V13.01,2013-03-01 18:16:00,
2013-03-01 12:21:00,64.6,20.1,26.22,NE,51,11.0,11.0,18,0.00,,---,0.00,VWS V13.01,2013-03-01 18:21:00,
2013-03-01 12:26:00,64.6,20.1,26.22,ENE,71,5.4,5.4,18,0.00,,---,0.00,VWS V13.01,2013-03-01 18:26:00,
2013-03-01 12:31:00,64.8,20.3,26.25,NE,48,4.0,4.0,18,0.00,,---,0.00,VWS V13.01,2013-03-01 18:31:00,
2013-03-01 12:36:00,64.8,20.3,26.25,NE,44,3.1,3.1,18,0.00,,---,0.00,VWS V13.01,2013-03-01 18:36:00,
2013-03-01 12:41:00,64.8,20.3,26.25,NE,42,8.1,8.1,18,0.00,,---,0.00,VWS V13.01,2013-03-01 18:41:00,
2013-03-01 12:46:00,64.8,20.3,26.25,NE,34,6.3,6.3,18,0.00,,---,0.00,VWS V13.01,2013-03-01 18:46:00,
2013-03-01 12:51:00,64.8,20.3,26.25,NE,55,7.6,7.6,18,0.00,,---,0.00,VWS V13.01,2013-03-01 18:51:00,
2013-03-01 12:56:00,66.2,20.1,26.19,NNW,342,5.4,8.1,17,0.00,,---,0.00,VWS V13.01,2013-03-01 18:56:00,
2013-03-01 13:01:00,66.2,20.1,26.19,ENE,62,8.1,8.1,17,0.00,,---,0.00,VWS V13.01,2013-03-01 19:01:00,
2013-03-01 13:06:00,66.2,20.1,26.19,North,3,8.3,8.3,17,0.00,,---,0.00,VWS V13.01,2013-03-01 19:06:00,
2013-03-01 13:11:00,63.9,19.6,26.19,NE,56,6.7,6.7,18,0.00,,---,0.00,VWS V13.01,2013-03-01 19:11:00,
2013-03-01 13:16:00,63.9,19.6,26.19,NNW,340,5.8,5.8,18,0.00,,---,0.00,VWS V13.01,2013-03-01 19:16:00,
2013-03-01 13:21:00,63.9,19.6,26.22,North,353,7.6,11.0,18,0.00,,---,0.00,VWS V13.01,2013-03-01 19:21:00,
2013-03-01 13:26:00,63.9,19.6,26.22,North,1,8.7,8.7,18,0.00,,---,0.00,VWS V13.01,2013-03-01 19:26:00,
2013-03-01 13:31:00,64.2,19.9,26.22,South,183,5.8,5.8,18,0.00,,---,0.00,VWS V13.01,2013-03-01 19:31:00,
2013-03-01 13:36:00,64.2,19.9,26.22,ESE,119,5.4,5.4,18,0.00,,---,0.00,VWS V13.01,2013-03-01 19:36:00,
2013-03-01 13:41:00,64.8,20.3,26.19,ESE,110,3.6,3.6,18,0.00,,---,0.00,VWS V13.01,2013-03-01 19:41:00,
2013-03-01 13:47:00,64.8,20.3,26.19,NE,54,8.7,8.7,18,0.00,,---,0.00,VWS V13.01,2013-03-01 19:47:00,
2013-03-01 13:52:00,64.8,20.3,26.19,NE,34,8.3,8.3,18,0.00,,---,0.00,VWS V13.01,2013-03-01 19:52:00,
2013-03-01 13:57:00,64.8,20.3,26.19,ENE,70,6.7,6.7,18,0.00,,---,0.00,VWS V13.01,2013-03-01 19:57:00,
2013-03-01 14:02:00,64.8,20.3,26.19,North,353,5.8,5.8,18,0.00,,---,0.00,VWS V13.01,2013-03-01 20:02:00,
2013-03-01 14:07:00,64.9,20.4,26.19,ENE,57,4.0,6.3,18,0.00,,---,0.00,VWS V13.01,2013-03-01 20:07:00,
2013-03-01 14:12:00,64.8,20.3,26.19,SSW,212,2.7,2.7,18,0.00,,---,0.00,VWS V13.01,2013-03-01 20:12:00,
2013-03-01 14:17:00,64.8,20.3,26.19,ESE,115,8.1,8.1,18,0.00,,---,0.00,VWS V13.01,2013-03-01 20:17:00,
2013-03-01 14:22:00,64.8,20.3,26.19,East,84,8.7,8.7,18,0.00,,---,0.00,VWS V13.01,2013-03-01 20:22:00,
2013-03-01 14:27:00,64.8,20.3,26.19,East,84,8.3,11.0,18,0.00,,---,0.00,VWS V13.01,2013-03-01 20:27:00,
2013-03-01 14:32:00,64.8,20.3,26.19,East,82,3.6,3.6,18,0.00,,---,0.00,VWS V13.01,2013-03-01 20:32:00,
2013-03-01 14:37:00,64.8,20.3,26.19,ENE,58,3.6,3.6,18,0.00,,---,0.00,VWS V13.01,2013-03-01 20:37:00,
2013-03-01 14:42:00,64.8,20.3,26.19,East,100,3.1,8.7,18,0.00,,---,0.00,VWS V13.01,2013-03-01 20:42:00,
2013-03-01 14:47:00,63.0,18.8,26.19,East,83,11.0,11.0,18,0.00,,---,0.00,VWS V13.01,2013-03-01 20:47:00,
2013-03-01 14:52:00,63.0,18.8,26.16,ENE,61,8.1,8.1,18,0.00,,---,0.00,VWS V13.01,2013-03-01 20:52:00,
2013-03-01 14:57:00,63.0,18.8,26.16,East,87,8.1,8.1,18,0.00,,---,0.00,VWS V13.01,2013-03-01 20:57:00,
2013-03-01 15:02:00,63.0,18.8,26.16,NE,50,4.0,4.0,18,0.00,,---,0.00,VWS V13.01,2013-03-01 21:02:00,
2013-03-01 15:07:00,64.4,20.0,26.16,ENE,59,5.8,5.8,18,0.00,,---,0.00,VWS V13.01,2013-03-01 21:07:00,
2013-03-01 15:12:00,64.4,20.0,26.16,NE,51,3.1,3.1,18,0.00,,---,0.00,VWS V13.01,2013-03-01 21:12:00,
2013-03-01 15:17:00,63.7,19.4,26.16,ENE,58,3.1,3.1,18,0.00,,---,0.00,VWS V13.01,2013-03-01 21:17:00,
2013-03-01 15:22:00,63.7,19.4,26.16,East,86,3.6,3.6,18,0.00,,---,0.00,VWS V13.01,2013-03-01 21:22:00,
2013-03-01 15:27:00,63.7,19.4,26.16,NNE,29,3.6,6.3,18,0.00,,---,0.00,VWS V13.01,2013-03-01 21:27:00,
2013-03-01 15:32:00,63.7,19.4,26.16,ESE,106,8.3,8.3,18,0.00,,---,0.00,VWS V13.01,2013-03-01 21:32:00,
2013-03-01 15:37:00,63.7,19.4,26.16,East,84,6.3,6.3,18,0.00,,---,0.00,VWS V13.01,2013-03-01 21:37:00,
2013-03-01 15:42:00,59.7,14.9,26.16,NNE,30,4.0,4.0,17,0.00,,---,0.00,VWS V13.01,2013-03-01 21:42:00,
2013-03-01 15:47:00,59.7,14.9,26.16,NE,37,5.4,5.4,17,0.00,,---,0.00,VWS V13.01,2013-03-01 21:47:00,
2013-03-01 15:52:00,59.7,14.9,26.16,North,10,3.6,3.6,17,0.00,,---,0.00,VWS V13.01,2013-03-01 21:52:00,
2013-03-01 15:57:00,59.7,14.9,26.16,North,0,5.8,5.8,17,0.00,,---,0.00,VWS V13.01,2013-03-01 21:57:00,
2013-03-01 16:02:00,59.2,14.4,26.16,East,94,3.6,5.8,17,0.00,,---,0.00,VWS V13.01,2013-03-01 22:02:00,
2013-03-01 16:07:00,59.2,14.4,26.16,ENE,64,3.6,3.6,17,0.00,,---,0.00,VWS V13.01,2013-03-01 22:07:00,
2013-03-01 16:12:00,59.2,14.4,26.16,NNW,333,2.7,2.7,17,0.00,,---,0.00,VWS V13.01,2013-03-01 22:12:00,
2013-03-01 16:17:00,59.2,14.4,26.16,ENE,75,11.9,11.9,17,0.00,,---,0.00,VWS V13.01,2013-03-01 22:17:00,
2013-03-01 16:26:00,59.2,14.4,26.16,East,82,3.6,3.6,17,0.00,,---,0.00,VWS V13.01,2013-03-01 22:26:00,
2013-03-01 16:31:00,59.2,14.4,26.16,SE,130,2.7,2.7,17,0.00,,---,0.00,VWS V13.01,2013-03-01 22:31:00,
2013-03-01 16:36:00,58.1,13.5,26.16,NNW,348,5.4,5.4,17,0.00,,---,0.00,VWS V13.01,2013-03-01 22:36:00,
2013-03-01 16:41:00,58.1,13.5,26.16,ENE,76,4.0,4.9,17,0.00,,---,0.00,VWS V13.01,2013-03-01 22:41:00,
2013-03-01 16:47:00,58.1,13.5,26.16,NNE,16,8.1,8.1,17,0.00,,---,0.00,VWS V13.01,2013-03-01 22:47:00,
2013-03-01 16:52:00,57.6,13.1,26.16,East,82,3.6,3.6,17,0.00,,---,0.00,VWS V13.01,2013-03-01 22:52:00,
2013-03-01 16:57:00,56.5,12.2,26.16,ENE,71,5.8,5.8,17,0.00,,---,0.00,VWS V13.01,2013-03-01 22:57:00,
2013-03-01 17:02:00,56.5,12.2,26.16,East,85,8.3,8.3,17,0.00,,---,0.00,VWS V13.01,2013-03-01 23:02:00,
2013-03-01 17:07:00,55.9,11.8,26.16,East,88,6.3,6.3,17,0.00,,---,0.00,VWS V13.01,2013-03-01 23:07:00,
2013-03-01 17:12:00,55.9,11.8,26.16,East,88,6.3,6.3,17,0.00,,---,0.00,VWS V13.01,2013-03-01 23:12:00,
2013-03-01 17:17:00,55.0,12.3,26.16,East,88,6.3,6.3,18,0.00,,---,0.00,VWS V13.01,2013-03-01 23:17:00,
2013-03-01 17:22:00,55.0,12.3,26.16,East,88,6.3,6.3,18,0.00,,---,0.00,VWS V13.01,2013-03-01 23:22:00,
2013-03-01 17:27:00,54.7,12.0,26.16,East,88,6.3,6.3,18,0.00,,---,0.00,VWS V13.01,2013-03-01 23:27:00,
2013-03-01 17:32:00,53.6,11.1,26.16,East,88,6.3,6.3,18,0.00,,---,0.00,VWS V13.01,2013-03-01 23:32:00,
2013-03-01 17:37:00,53.6,11.1,26.16,East,88,6.3,6.3,18,0.00,,---,0.00,VWS V13.01,2013-03-01 23:37:00,
2013-03-01 17:42:00,53.4,11.0,26.16,ENE,76,7.6,7.6,18,0.00,,---,0.00,VWS V13.01,2013-03-01 23:42:00,
2013-03-01 17:47:00,53.4,11.0,26.16,ENE,76,7.6,7.6,18,0.00,,---,0.00,VWS V13.01,2013-03-01 23:47:00,
2013-03-01 17:52:00,53.1,10.7,26.16,ENE,76,7.6,7.6,18,0.00,,---,0.00,VWS V13.01,2013-03-01 23:52:00,
2013-03-01 17:57:00,52.3,10.1,26.16,ENE,63,4.9,4.9,18,0.00,,---,0.00,VWS V13.01,2013-03-01 23:57:00,
2013-03-01 18:02:00,52.3,10.1,26.16,East,89,5.8,5.8,18,0.00,,---,0.00,VWS V13.01,2013-03-02 00:02:00,
2013-03-01 18:08:00,51.4,10.6,26.16,East,89,5.8,5.8,19,0.00,,---,0.00,VWS V13.01,2013-03-02 00:08:00,
2013-03-01 18:13:00,51.4,10.6,26.16,NNE,28,3.6,3.6,19,0.00,,---,0.00,VWS V13.01,2013-03-02 00:13:00,
2013-03-01 18:18:00,50.5,9.8,26.16,East,90,5.8,5.8,19,0.00,,---,0.00,VWS V13.01,2013-03-02 00:18:00,
2013-03-01 18:23:00,50.2,9.5,26.16,East,96,5.4,5.8,19,0.00,,---,0.00,VWS V13.01,2013-03-02 00:23:00,
2013-03-01 18:28:00,49.5,8.9,26.19,East,96,5.4,5.4,19,0.00,,---,0.00,VWS V13.01,2013-03-02 00:28:00,
2013-03-01 18:33:00,48.9,8.5,26.19,East,79,4.0,4.0,19,0.00,,---,0.00,VWS V13.01,2013-03-02 00:33:00,
2013-03-01 18:38:00,48.9,8.5,26.19,NE,40,0.0,0.0,19,0.00,,---,0.00,VWS V13.01,2013-03-02 00:38:00,
2013-03-01 18:43:00,47.7,7.4,26.16,NE,40,0.0,0.0,19,0.00,,---,0.00,VWS V13.01,2013-03-02 00:43:00,
2013-03-01 18:48:00,47.7,7.4,26.16,ENE,74,3.6,3.6,19,0.00,,---,0.00,VWS V13.01,2013-03-02 00:48:00,
2013-03-01 18:53:00,46.0,7.2,26.16,ENE,65,0.0,0.0,20,0.00,,---,0.00,VWS V13.01,2013-03-02 00:53:00,
2013-03-01 18:58:00,44.2,5.7,26.19,ENE,64,2.7,2.7,20,0.00,,---,0.00,VWS V13.01,2013-03-02 00:58:00,
2013-03-01 19:03:00,43.5,5.1,26.19,ENE,64,2.7,2.7,20,0.00,,---,0.00,VWS V13.01,2013-03-02 01:03:00,
2013-03-01 19:08:00,43.3,5.0,26.19,East,85,3.1,3.1,20,0.00,,---,0.00,VWS V13.01,2013-03-02 01:08:00,
2013-03-01 19:13:00,43.3,5.0,26.19,East,84,0.0,0.0,20,0.00,,---,0.00,VWS V13.01,2013-03-02 01:13:00,
2013-03-01 19:18:00,42.4,5.3,26.19,East,84,0.0,0.0,21,0.00,,---,0.00,VWS V13.01,2013-03-02 01:18:00,
2013-03-01 19:23:00,42.4,5.3,26.19,East,84,0.0,0.0,21,0.00,,---,0.00,VWS V13.01,2013-03-02 01:23:00,
2013-03-01 19:28:00,41.9,4.8,26.19,East,80,0.0,0.0,21,0.00,,---,0.00,VWS V13.01,2013-03-02 01:28:00,
2013-03-01 19:33:00,41.9,4.8,26.19,East,81,0.0,0.0,21,0.00,,---,0.00,VWS V13.01,2013-03-02 01:33:00,
2013-03-01 19:38:00,41.9,4.8,26.19,East,81,0.0,0.0,21,0.00,,---,0.00,VWS V13.01,2013-03-02 01:38:00,
2013-03-01 19:43:00,40.1,3.3,26.19,East,82,0.0,0.0,21,0.00,,---,0.00,VWS V13.01,2013-03-02 01:43:00,
2013-03-01 19:48:00,40.1,3.3,26.19,East,82,0.0,0.0,21,0.00,,---,0.00,VWS V13.01,2013-03-02 01:48:00,
2013-03-01 19:53:00,40.5,3.6,26.19,East,82,0.0,0.0,21,0.00,,---,0.00,VWS V13.01,2013-03-02 01:53:00,
2013-03-01 19:58:00,40.5,3.6,26.22,East,82,0.0,0.0,21,0.00,,---,0.00,VWS V13.01,2013-03-02 01:58:00,
2013-03-01 20:03:00,40.5,3.6,26.22,East,82,0.0,0.0,21,0.00,,---,0.00,VWS V13.01,2013-03-02 02:03:00,
2013-03-01 20:08:00,38.5,2.0,26.22,NE,55,0.0,0.0,21,0.00,,---,0.00,VWS V13.01,2013-03-02 02:08:00,
2013-03-01 20:13:00,38.1,1.6,26.19,NE,55,0.0,0.0,21,0.00,,---,0.00,VWS V13.01,2013-03-02 02:13:00,
2013-03-01 20:18:00,37.2,1.9,26.19,NNE,14,0.0,0.0,22,0.00,,---,0.00,VWS V13.01,2013-03-02 02:18:00,
2013-03-01 20:23:00,37.2,1.9,26.19,NNE,14,0.0,0.0,22,0.00,,---,0.00,VWS V13.01,2013-03-02 02:23:00,
2013-03-01 20:28:00,37.2,1.9,26.19,NNE,14,0.0,0.0,22,0.00,,---,0.00,VWS V13.01,2013-03-02 02:28:00,
2013-03-01 20:33:00,37.2,1.9,26.19,NNE,14,0.0,0.0,22,0.00,,---,0.00,VWS V13.01,2013-03-02 02:33:00,
2013-03-01 20:38:00,37.2,1.9,26.19,NNE,14,0.0,0.0,22,0.00,,---,0.00,VWS V13.01,2013-03-02 02:38:00,
2013-03-01 20:43:00,36.0,0.8,26.19,North,353,3.6,3.6,22,0.00,,---,0.00,VWS V13.01,2013-03-02 02:43:00,
2013-03-01 20:48:00,35.6,0.5,26.19,North,353,3.6,3.6,22,0.00,,---,0.00,VWS V13.01,2013-03-02 02:48:00,
2013-03-01 20:53:00,35.4,0.4,26.19,North,353,0.0,0.0,22,0.00,,---,0.00,VWS V13.01,2013-03-02 02:53:00,
2013-03-01 20:58:00,35.2,0.2,26.22,North,353,0.0,0.0,22,0.00,,---,0.00,VWS V13.01,2013-03-02 02:58:00,
2013-03-01 21:05:00,35.2,0.2,26.22,NNW,327,4.9,4.9,22,0.00,,---,0.00,VWS V13.01,2013-03-02 03:05:00,
2013-03-01 21:12:00,35.1,0.1,26.22,NW,313,3.1,3.1,22,0.00,,---,0.00,VWS V13.01,2013-03-02 03:12:00,
2013-03-01 21:17:00,34.3,-0.6,26.22,NW,322,4.0,4.0,22,0.00,,---,0.00,VWS V13.01,2013-03-02 03:17:00,
2013-03-01 21:47:00,32.2,-1.4,26.19,NW,317,2.7,2.7,23,0.00,,---,0.00,VWS V13.01,2013-03-02 03:47:00,
2013-03-01 22:52:00,27.7,-5.3,26.19,NW,317,2.7,2.7,23,0.00,,---,0.00,VWS V13.01,2013-03-02 04:52:00,
2013-03-01 22:58:00,27.7,-5.3,26.19,NW,317,2.7,2.7,23,0.00,,---,0.00,VWS V13.01,2013-03-02 04:58:00,
2013-03-01 23:01:00,27.0,-5.9,26.19,NW,317,2.7,2.7,23,0.00,,---,0.00,VWS V13.01,2013-03-02 05:01:00,
2013-03-01 23:06:00,27.0,-5.9,26.19,NW,317,2.7,2.7,23,0.00,,---,0.00,VWS V13.01,2013-03-02 05:06:00,
2013-03-01 23:07:00,27.0,-5.9,26.19,NW,317,2.7,2.7,23,0.00,,---,0.00,VWS V13.01,2013-03-02 05:07:00,
2013-03-01 23:10:00,26.6,-5.3,26.19,NW,317,2.7,2.7,24,0.00,,---,0.00,VWS V13.01,2013-03-02 05:10:00,
2013-03-01 23:22:00,28.6,-4.5,26.19,NW,317,2.7,2.7,23,0.00,,---,0.00,VWS V13.01,2013-03-02 05:22:00,
2013-03-01 23:27:00,28.6,-4.5,26.19,NW,317,2.7,2.7,23,0.00,,---,0.00,VWS V13.01,2013-03-02 05:27:00,
2013-03-01 23:32:00,28.6,-4.5,26.19,NW,317,2.7,2.7,23,0.00,,---,0.00,VWS V13.01,2013-03-02 05:32:00,
2013-03-01 23:37:00,28.4,-4.7,26.19,NW,317,2.7,2.7,23,0.00,,---,0.00,VWS V13.01,2013-03-02 05:37:00,
2013-03-01 23:42:00,28.4,-4.7,26.19,NW,317,2.7,2.7,23,0.00,,---,0.00,VWS V13.01,2013-03-02 05:42:00,
2013-03-01 23:47:00,27.7,-5.3,26.19,NW,317,2.7,2.7,23,0.00,,---,0.00,VWS V13.01,2013-03-02 05:47:00,
2013-03-01 23:52:00,26.2,-5.6,26.19,NW,317,2.7,2.7,24,0.00,,---,0.00,VWS V13.01,2013-03-02 05:52:00,
2013-03-01 23:57:00,26.2,-5.6,26.19,NW,317,2.7,2.7,24,0.00,,---,0.00,VWS V13.01,2013-03-02 05:57:00,